FW6176 Weather Reports


Display with metric or nautical units.
time (UTC)temp
F
wind
direction
speed
MPH
gust
MPH
rain 1hr
in
rain 24hr
in
rain mn
in
humidity
%
barometer
mb
20260505204548 49 333 1.0 4.0 0.03 0.18 0.18 84 1009.9
20260505203049 49 301 0.0 6.0 0.03 0.18 0.18 83 1010.0
20260505201546 49 294 0.0 6.0 0.01 0.16 0.16 82 1009.9
20260505200048 49 314 1.0 7.0 0.00 0.15 0.15 81 1010.0
20260505194551 50 25 2.0 7.0 0.00 0.15 0.15 80 1010.3
20260505193042 50 314 4.0 11.0 0.01 0.15 0.15 78 1010.5
20260505191541 50 310 4.0 10.0 0.01 0.15 0.15 79 1010.3
20260505190041 51 296 4.0 10.0 0.01 0.15 0.15 78 1010.4
20260505184538 52 314 2.0 9.0 0.01 0.16 0.15 77 1009.9
20260505183040 53 302 3.0 10.0 0.00 0.15 0.14 73 1010.4
20260505181540 54 292 4.0 7.0 0.00 0.15 0.14 69 1010.2
20260505180039 54 292 2.0 5.0 0.00 0.15 0.14 71 1010.7
20260505174540 54 340 2.0 8.0 0.00 0.55 0.14 70 1010.8
20260505173035 54 316 3.0 8.0 0.00 0.55 0.14 71 1010.5
20260505171535 55 352 2.0 6.0 0.00 0.55 0.14 69 1010.5
20260505170030 56 310 0.0 3.0 0.00 0.55 0.14 67 1009.9
20260505164528 57 49 0.0 3.0 0.00 0.57 0.14 64 1009.9
20260505163027 57 84 0.0 3.0 0.00 0.57 0.14 64 1009.5
20260505161529 57 18 0.0 3.0 0.00 0.57 0.14 62 1009.6
20260505153026 56 30 2.0 7.0 0.00 0.57 0.14 66 1009.2
20260505151525 56 41 1.0 6.0 0.00 0.57 0.14 70 1009.4
20260505124515 49 307 2.0 7.0 0.10 0.55 0.11 86 1009.6
20260505123013 50 311 2.0 11.0 0.10 0.55 0.11 84 1009.4
20260505121609 51 302 2.0 9.0 0.09 0.54 0.10 82 1008.9
20260505120004 53 292 3.0 9.0 0.04 0.48 0.04 77 1009.8
20260505114602 54 291 4.0 11.0 0.01 0.45 0.01 75 1008.6
20260505113105 55 292 3.0 8.0 0.01 0.45 0.01 73 1007.8
20260505111552 56 308 3.0 7.0 0.01 0.45 0.01 73 1007.5
20260505101540 59 307 5.0 9.0 0.00 0.44 0.00 78 1007.0
20260505100035 60 350 2.0 8.0 0.00 0.44 0.00 79 1006.7
20260505094535 62 300 3.0 9.0 0.00 0.44 0.00 78 1006.7
20260505093027 64 302 1.0 5.0 0.00 0.44 0.00 72 1006.4
20260505091524 64 291 1.0 4.0 0.00 0.44 0.00 69 1006.1
20260505090023 64 119 0.0 0.0 0.00 0.44 0.00 67 1005.2
20260505084526 64 114 0.0 1.0 0.00 0.44 0.00 67 1005.1
20260505083021 64 116 0.0 1.0 0.00 0.44 0.00 68 1004.9
20260505081529 65 117 0.0 2.0 0.00 0.44 0.00 66 1005.0
20260505080016 66 302 0.0 2.0 0.00 0.44 0.00 63 1005.4
20260505074514 66 85 0.0 1.0 0.00 0.44 0.00 62 1005.4
20260505073014 66 310 0.0 3.0 0.00 0.44 0.00 61 1005.6
20260505071524 67 40 0.0 3.0 0.00 0.44 0.00 60 1005.8
20260505070010 68 302 1.0 8.0 0.00 0.44 0.00 58 1006.3
20260505064507 70 300 7.0 14.0 0.00 0.44 0.00 55 1006.0
20260505063100 72 306 4.0 7.0 0.00 0.44 0.00 56 1005.0
20260505061601 72 6 0.0 4.0 0.00 0.44 0.00 56 1004.1
20260505060056 72 77 1.0 5.0 0.00 0.44 0.00 56 1004.0
20260505054557 72 207 0.0 3.0 0.00 0.44 0.00 56 1004.0
20260505053102 72 268 0.0 7.0 0.00 0.44 0.00 55 1003.8
20260505051549 72 226 0.0 5.0 0.00 0.44 0.00 55 1003.5
20260505041549 73 293 1.0 7.0 0.00 0.44 0.44 53 1002.8
20260505040045 74 176 1.0 6.0 0.00 0.44 0.44 53 1003.2
20260505034544 74 270 0.0 6.0 0.00 0.44 0.44 53 1003.4
20260505033047 74 291 0.0 6.0 0.00 0.44 0.44 52 1003.5
20260505031544 75 119 0.0 4.0 0.00 0.44 0.44 51 1003.4
20260505030042 75 330 1.0 8.0 0.00 0.44 0.44 51 1003.4
20260505024544 75 331 0.0 2.0 0.00 0.44 0.44 51 1003.2
20260505023047 76 113 0.0 4.0 0.00 0.44 0.44 50 1002.9
20260505021542 76 226 1.0 5.0 0.00 0.44 0.44 49 1002.6
20260505020041 76 68 0.0 5.0 0.00 0.44 0.44 50 1002.3
20260505014541 77 75 0.0 4.0 0.00 0.44 0.44 49 1002.1
20260505013040 76 89 0.0 3.0 0.00 0.44 0.44 50 1001.9
20260505011549 77 340 0.0 2.0 0.00 0.44 0.44 50 1001.8
20260505010040 77 101 0.0 5.0 0.00 0.44 0.44 48 1001.7
20260505004540 78 254 0.0 3.0 0.00 0.44 0.44 49 1001.5
20260505003038 79 77 0.0 3.0 0.00 0.44 0.44 48 1001.4
20260505001538 79 96 0.0 4.0 0.00 0.44 0.44 47 1001.3
20260505000036 80 263 0.0 4.0 0.00 0.44 0.44 48 1001.2
20260504234536 80 266 0.0 3.0 0.00 0.44 0.44 47 1001.2
20260504233039 80 36 0.0 4.0 0.00 0.44 0.44 50 1001.2
20260504231532 80 226 0.0 3.0 0.00 0.44 0.44 51 1001.5
20260504230031 79 174 0.0 6.0 0.00 0.44 0.44 53 1001.6
20260504224529 79 150 0.0 4.0 0.00 0.44 0.44 52 1001.8
20260504223027 79 101 0.0 3.0 0.00 0.44 0.44 52 1002.2
20260504221526 79 324 0.0 4.0 0.00 0.44 0.44 50 1002.2
20260504220025 79 103 0.0 5.0 0.00 0.44 0.44 51 1002.3
20260504214524 79 117 0.0 10.0 0.00 0.44 0.44 53 1002.3
20260504213023 79 244 0.0 7.0 0.00 0.44 0.44 50 1002.5
20260504211520 79 112 0.0 6.0 0.00 0.44 0.44 54 1002.5
20260504210018 79 321 0.0 5.0 0.00 0.44 0.44 55 1002.7